Ravenna, OH

1:21 PM EST on January 17, 2017 (GMT -0500)
Ravenna

Weather History for KPOV - July, 2013

Change the Weather History Date:

Sunday, July 21, 2013

  Actual Average (KCAK) Record (KCAK)
Temperature  
Mean Temperature 73 °F -  
Max Temperature 81 °F 82 °F 100 °F (1930)
Min Temperature 65 °F 62 °F 45 °F (1890)
Cooling Degree Days 8    
Growing Degree Days 23 (Base 50)    
Moisture  
Dew Point 67 °F    
Average Humidity 83    
Maximum Humidity 100    
Minimum Humidity 56    
Precipitation  
Precipitation 0.00 in - - ()
Sea Level Pressure  
Sea Level Pressure 29.97 in    
Wind  
Wind Speed 1 mph (North)    
Max Wind Speed 8 mph    
Max Gust Speed -    
Visibility 7 miles    
Events Fog    
Averages and records for this station are not official NWS values.
T = Trace of Precipitation, MM = Missing Value Source: NWS Daily Summary

Daily Weather History Graph

Daily Weather History Graph

Search for Another Location

Airport or City:

Trip Planner

Search our weather history database for the weather conditions in past years. The results will help you decide how hot, cold, wet, or windy it might be!

Date:

Astronomy

Jul. 21, 2013 Rise Set
Actual Time 6:10 AM EDT 8:51 PM EDT
Civil Twilight 5:38 AM EDT 9:23 PM EDT
Nautical Twilight 4:57 AM EDT 10:04 PM EDT
Astronomical Twilight 4:12 AM EDT 10:49 PM EDT
Moon 7:48 PM EDT (7/21) 4:54 AM EDT (7/21)
Length of Visible Light 15h 45m
Length of Day
14h 41m
Waxing Gibbous, 98% of the Moon is Illuminated
Jul 21
Waxing Gibbous
Jul 22
Full
Jul 29
Last Quarter
Aug 6
New
Aug 14
First Quarter

Hourly Weather History & Observations

Time (EDT) Temp. Heat Index Dew Point Humidity Pressure Visibility Wind Dir Wind Speed Gust Speed Precip Events Conditions
12:13 AM 68.5 °F - 68.5 °F 100% 29.95 in 7.0 mi Calm Calm - N/A   Scattered Clouds
12:33 AM 67.6 °F - 68.0 °F 100% 29.95 in 7.0 mi Calm Calm - N/A   Clear
12:54 AM 67.1 °F - 67.1 °F 100% 29.95 in 4.0 mi Calm Calm - N/A   Clear
1:13 AM 67.3 °F - 67.5 °F 100% 29.94 in 4.0 mi Calm Calm - N/A   Scattered Clouds
1:33 AM 66.4 °F - 66.6 °F 100% 29.95 in 4.0 mi Calm Calm - N/A   Scattered Clouds
1:53 AM 66.6 °F - 66.7 °F 100% 29.94 in 5.0 mi Calm Calm - N/A   Scattered Clouds
2:13 AM 66.4 °F - 66.6 °F 100% 29.94 in 7.0 mi Calm Calm - N/A   Clear
2:33 AM 65.8 °F - 66.2 °F 100% 29.93 in 5.0 mi Calm Calm - N/A   Scattered Clouds
2:53 AM 65.7 °F - 65.8 °F 100% 29.94 in 3.0 mi Calm Calm - N/A   Clear
3:13 AM 66.7 °F - 66.9 °F 100% 29.94 in 5.0 mi Calm Calm - N/A   Clear
3:33 AM 66.2 °F - 66.4 °F 100% 29.94 in 3.0 mi Calm Calm - N/A   Clear
3:54 AM 65.5 °F - 65.7 °F 100% 29.95 in 1.5 mi Calm Calm - N/A   Scattered Clouds
4:13 AM 66.2 °F - 66.4 °F 100% 29.95 in 4.0 mi Calm Calm - N/A   Mostly Cloudy
4:33 AM - - - N/A% 29.95 in 5.0 mi Calm Calm - N/A   Overcast
4:54 AM 66.4 °F - 66.4 °F 100% 29.94 in 4.0 mi Calm Calm - N/A   Overcast
5:13 AM - - - N/A% 29.95 in 2.5 mi Calm Calm - N/A   Overcast
5:33 AM 67.5 °F - 67.6 °F 100% 29.96 in 2.5 mi Calm Calm - N/A   Overcast
5:53 AM 68.0 °F - 68.0 °F 100% 29.97 in 2.5 mi Calm Calm - N/A   Overcast
6:13 AM 67.3 °F - 67.5 °F 100% 29.97 in 3.0 mi Calm Calm - N/A   Overcast
6:33 AM 67.3 °F - 67.5 °F 100% 29.98 in 0.5 mi Calm Calm - N/A Fog Fog
6:53 AM 67.3 °F - 67.5 °F 100% 29.97 in 0.2 mi Calm Calm - N/A Fog Fog
7:13 AM 67.6 °F - 68.0 °F 100% 29.98 in 0.2 mi Calm Calm - N/A Fog Fog
7:33 AM 68.2 °F - 68.4 °F 100% 29.98 in 0.2 mi Calm Calm - N/A Fog Fog
7:53 AM 68.4 °F - 68.5 °F 100% 29.98 in 0.2 mi Calm Calm - N/A Fog Fog
8:13 AM 69.1 °F - 69.3 °F 100% 29.99 in 0.2 mi East 3.5 mph - N/A Fog Fog
8:33 AM 69.3 °F - 69.4 °F 100% 29.99 in 0.2 mi Calm Calm - N/A Fog Fog
8:53 AM 71.1 °F - 71.2 °F 100% 29.99 in 1.2 mi ESE 4.6 mph - N/A   Overcast
9:13 AM 70.7 °F - 70.7 °F 100% 29.99 in 3.0 mi Calm Calm - N/A   Overcast
9:33 AM 71.8 °F - 71.8 °F 100% 29.99 in 5.0 mi Calm Calm - N/A   Overcast
9:54 AM 73.2 °F - 72.7 °F 98% 29.99 in 7.0 mi Calm Calm - N/A   Overcast
10:13 AM 74.8 °F - 72.1 °F 91% 30.00 in 7.0 mi SE 4.6 mph - N/A   Overcast
10:33 AM 73.8 °F - 71.6 °F 93% 30.00 in 7.0 mi Calm Calm - N/A   Mostly Cloudy
10:53 AM 77.0 °F - 68.5 °F 75% 30.00 in 10.0 mi Calm Calm - N/A   Scattered Clouds
11:13 AM 77.4 °F - 68.4 °F 74% 30.00 in 10.0 mi Calm Calm - N/A   Scattered Clouds
11:34 AM 77.0 °F - 67.8 °F 73% 30.00 in 10.0 mi Calm Calm - N/A   Mostly Cloudy
11:53 AM 79.0 °F - 66.0 °F 64% 30.00 in 10.0 mi Calm Calm - N/A   Scattered Clouds
12:13 PM 79.2 °F - 65.8 °F 64% 30.01 in 10.0 mi Calm Calm - N/A   Mostly Cloudy
12:33 PM 78.6 °F - 65.1 °F 63% 30.00 in 10.0 mi Calm Calm - N/A   Mostly Cloudy
12:53 PM 79.0 °F - 65.1 °F 62% 30.00 in 10.0 mi North 3.5 mph - N/A   Mostly Cloudy
1:13 PM 80.4 °F 82.6 °F 66.4 °F 62% 30.00 in 10.0 mi Calm Calm - N/A   Scattered Clouds
1:33 PM 80.1 °F 81.5 °F 63.0 °F 56% 29.99 in 10.0 mi West 3.5 mph - N/A   Scattered Clouds
1:53 PM 79.0 °F - 64.4 °F 61% 29.99 in 10.0 mi NNW 3.5 mph - N/A   Mostly Cloudy
2:13 PM 79.3 °F - 64.0 °F 59% 29.99 in 10.0 mi Calm Calm - N/A   Mostly Cloudy
2:33 PM 78.8 °F - 64.0 °F 60% 29.99 in 10.0 mi Calm Calm - N/A   Overcast
2:53 PM 78.4 °F - 66.2 °F 66% 29.98 in 10.0 mi Calm Calm - N/A   Overcast
3:13 PM 78.1 °F - 65.8 °F 66% 29.98 in 10.0 mi NW 3.5 mph - N/A   Overcast
3:33 PM 77.9 °F - 65.8 °F 66% 29.98 in 7.0 mi WNW 5.8 mph - N/A   Mostly Cloudy
3:53 PM 78.8 °F - 66.0 °F 65% 29.98 in 10.0 mi WNW 5.8 mph - N/A   Mostly Cloudy
4:13 PM 80.4 °F 82.1 °F 64.6 °F 58% 29.98 in 10.0 mi West 6.9 mph - N/A   Scattered Clouds
4:33 PM 81.1 °F 83.2 °F 66.0 °F 60% 29.97 in 10.0 mi NNW 5.8 mph - N/A   Clear
4:53 PM 81.0 °F 82.9 °F 65.3 °F 59% 29.97 in 10.0 mi NW 8.1 mph - N/A   Clear
5:13 PM 79.7 °F - 63.9 °F 58% 29.97 in 10.0 mi NNW 6.9 mph - N/A   Clear
5:34 PM 80.1 °F 82.0 °F 65.3 °F 61% 29.96 in 10.0 mi NNW 4.6 mph - N/A   Scattered Clouds
5:53 PM 78.6 °F - 66.2 °F 66% 29.96 in 10.0 mi NNW 5.8 mph - N/A   Scattered Clouds
6:13 PM 79.0 °F - 66.6 °F 66% 29.96 in 10.0 mi North 3.5 mph - N/A   Scattered Clouds
6:33 PM 77.5 °F - 65.5 °F 66% 29.96 in 10.0 mi North 4.6 mph - N/A   Scattered Clouds
6:53 PM 78.8 °F - 65.1 °F 63% 29.96 in 10.0 mi NNW 6.9 mph - N/A   Scattered Clouds
7:13 PM 77.0 °F - 64.9 °F 66% 29.96 in 10.0 mi North 4.6 mph - N/A   Scattered Clouds
7:34 PM 76.3 °F - 65.1 °F 68% 29.96 in 10.0 mi NNE 4.6 mph - N/A   Scattered Clouds
7:53 PM 75.0 °F - 64.6 °F 70% 29.96 in 10.0 mi North 3.5 mph - N/A   Clear
8:13 PM 74.1 °F - 64.6 °F 72% 29.96 in 10.0 mi North 3.5 mph - N/A   Clear
8:33 PM 73.4 °F - 64.4 °F 73% 29.96 in 10.0 mi NNE 4.6 mph - N/A   Clear
8:53 PM 71.6 °F - 65.5 °F 81% 29.97 in 10.0 mi NNE 3.5 mph - N/A   Clear
9:13 PM 71.2 °F - 65.5 °F 82% 29.97 in 10.0 mi NNE 3.5 mph - N/A   Clear
9:33 PM 70.9 °F - 64.8 °F 81% 29.98 in 10.0 mi NNE 3.5 mph - N/A   Clear
9:53 PM 70.5 °F - 65.1 °F 83% 29.99 in 10.0 mi ENE 4.6 mph - N/A   Clear
10:13 PM 69.1 °F - 66.9 °F 93% 30.00 in 10.0 mi NE 3.5 mph - N/A   Clear
10:33 PM 69.4 °F - 65.3 °F 87% 30.00 in 10.0 mi NNE 4.6 mph - N/A   Clear
10:53 PM 68.5 °F - 64.9 °F 88% 30.00 in 10.0 mi NE 3.5 mph - N/A   Clear
11:13 PM 66.9 °F - 66.9 °F 100% 30.00 in 10.0 mi NE 3.5 mph - N/A   Clear
11:33 PM 66.2 °F - 66.2 °F 100% 30.00 in 10.0 mi East 3.5 mph - N/A   Clear
11:53 PM 66.2 °F - 65.5 °F 98% 30.00 in 10.0 mi Calm Calm - N/A   Clear